Regional Weather Roundup
Issued by NWS

Home | Current Version | Previous Version | Text Only | Print | Product List | Glossary Off
Versions: 1 2 3 4 5 6 7 8 9 10 11 12 13 14 15 16 17 18 19 20 21 22 23 24 25 26 27 28 29 30 31 32 33 34 35 36 37 38 39 40 41 42 43 44 45 46 47 48 49 50

000
ASUS45 KTFX 090810
RWRMT
MONTANA REGIONAL WEATHER ROUNDUP
NATIONAL WEATHER SERVICE GREAT FALLS MT
100 AM MST TUE FEB 09 2016

NOTE: "FAIR" INDICATES FEW OR NO CLOUDS BELOW 12000 FEET WITH NO
SIGNIFICANT WEATHER AND/OR OBSTRUCTIONS TO VISIBILITY.

MTZ001>007-043-090900-
WEST OF THE DIVIDE

CITY           SKY/WX    TMP DP  RH WIND       PRES   REMARKS
KALISPELL      CLEAR     22  21  96 CALM      30.53S
MISSOULA       CLEAR     26  22  84 CALM      30.56S
BUTTE          CLOUDY    20  17  88 S5        30.50F
MULLAN PASS    CLEAR     39  30  70 W5        30.50S
ANACONDA         N/A     28  27  93 CALM      30.50S
DEER LODGE       N/A     28  27  93 SW3       30.51F
HAMILTON         N/A     28  27  93 SE5         N/A
LIBBY            N/A     23  21  93 CALM      30.55S
PLAINS           N/A     27  22  81 W1        30.52
$$

MTZ008-052>055-090900-
SOUTHWEST MONTANA

CITY           SKY/WX    TMP DP  RH WIND       PRES   REMARKS
BOZEMAN        CLOUDY    25  22  88 S3        30.47S
DILLON         CLOUDY    33  26  75 SW13      30.49S WCI  24
ENNIS          CLEAR     28  25  86 CALM      30.54F
TWIN BRIDGES     N/A     26  19  74 S6        30.42  WCI  19
$$

MTZ009-010-012-014-046-048-049-054-090900-
EAST SLOPES AND CENTRAL MONTANA

CITY           SKY/WX    TMP DP  RH WIND       PRES   REMARKS
CUT BANK       CLEAR     41  29  62 W16       30.28F
GREAT FALLS    CLOUDY    41  29  62 SW15      30.33S
MALMSTROM AFB  CLOUDY    39  30  72 SW13      30.33S WCI  31
HELENA         CLOUDY    36  29  75 S6        30.43S WCI  31
CHOTEAU          N/A     50  27  40 W18G25    30.30F
CONRAD           N/A     44  29  56 S1        30.28F
$$

MTZ011-013-016-021-045-047-050-051-090900-
NORTH CENTRAL MONTANA

CITY           SKY/WX    TMP DP  RH WIND       PRES   REMARKS
HAVRE          PTCLDY    36  30  79 SW12      30.27S WCI  28
LEWISTOWN      CLOUDY    40  26  57 W9        30.31S
N BAR RANCH      N/A     43  27  52 VRB3      30.30S
CHINOOK          N/A     27  25  93 CALM      30.28S
$$

MTZ017>020-022>027-061-062-090900-
NORTHEAST MONTANA

CITY           SKY/WX    TMP DP  RH WIND       PRES   REMARKS
GLASGOW        CLOUDY    26  20  77 NW7       30.24R WCI  18
JORDAN           N/A     33  28  81 W10       30.25F WCI  25
SIDNEY         CLOUDY    28  19  69 CALM      30.24R
WOLF POINT     CLOUDY    25  21  85 SW5       30.24F
PLENTYWOOD       N/A     28  21  74 CALM      30.19F
POPLAR           N/A     25  19  80 CALM      30.24S
SCOBEY           N/A     25  13  60 CALM      30.18
$$

MTZ028>42-056>058-090900-
SOUTHCENTRAL AND SOUTHEAST MONTANA

CITY           SKY/WX    TMP DP  RH WIND       PRES   REMARKS
BAKER          CLOUDY    19  12  74 CALM      30.22F
BILLINGS       CLEAR     44  30  57 W14       30.31F
LIVINGSTON     CLOUDY    47  26  44 SW23      30.40S
MILES CITY     PTCLDY    29  25  85 W13       30.24S WCI  19
EKALAKA          N/A     29  15  55 CALM      30.16
FORSYTH          N/A     34  25  69 W6        30.27S WCI  29
LAUREL           N/A     34  17  50 SW8       30.27F WCI  27
ROUNDUP          N/A     38  27  65 S3        30.18S
$$

REGIONAL REPORTS...DAKOTAS

CITY           SKY/WX    TMP DP  RH WIND       PRES   REMARKS
WILLISTON      CLOUDY    29  21  72 S3        30.24S
MINOT          CLOUDY    25  14  63 SW6       30.25F WCI  18
DICKINSON      CLOUDY    28  18  66 CALM      30.20F
BEACH          CLOUDY    28  18  64 SW6       30.24F WCI  22
CROSBY         CLOUDY    25  23  93 S8        30.23F WCI  16
TIOGA          CLOUDY    23  23 100 S5        30.26F
WATFORD CITY   CLOUDY    27  21  80 SE6       30.24S WCI  20
BISMARCK       CLOUDY    26  11  52 N9        30.29R WCI  17
GRAND FORKS    PTCLDY     4  -1  80 NW9       30.27R WCI -10
FARGO          CLEAR      6   0  76 N15       30.25R WCI -12
BUFFALO SD       N/A     28  13  53 CALM      30.15F
RAPID CITY     CLOUDY    30  18  60 N5        30.22F
$$

REGIONAL REPORTS...WYOMING/IDAHO/WASHINGTON

CITY           SKY/WX    TMP DP  RH WIND       PRES   REMARKS
GILLETTE       CLOUDY    33  26  75 W13       30.26S WCI  24
SHERIDAN       CLEAR     38  28  67 W10       30.29F WCI  31
BUFFALO WY     CLEAR     41  28  60 NW8       30.29R
CODY           CLOUDY    27  18  69 CALM      30.35S
YELLOWSTONE LA   N/A     11   7  84 CALM      30.57F
IDAHO FALLS    FOG       18  15  88 CALM      30.63F VSB 1/4
SALMON         CLOUDY    12   9  85 CALM      30.67R
BOISE          PTCLDY    34  27  75 SE8       30.63F WCI  27
SPOKANE        PTCLDY    34  29  82 NE7       30.51S WCI  28
$$

REGIONAL REPORTS...ALBERTA

CITY           SKY/WX    TMP DP  RH WIND       PRES   REMARKS
EDMONTON       CLOUDY    36  27  69 SW7       30.16S WCI  30
CALGARY        PTCLDY    50  21  32 NW10G17   30.24S
LETHBRIDGE     CLEAR     46  30  53 W17G23    30.26R
MEDICINE HAT   CLEAR     27  25  93 VRB2      30.25F
WATERTON GATE    N/A     46  27  46 SW26G38     N/A
CARDSTON         N/A     50  25  37 W17G25      N/A
MILK RIVER       N/A     37  28  70 W13         N/A  WCI  29
$$

REGIONAL REPORTS...SASKATCHEWAN

CITY           SKY/WX    TMP DP  RH WIND       PRES   REMARKS
SWIFT CURRENT  CLOUDY    30  27  86 W12       30.20F WCI  21
REGINA         CLOUDY    25  21  86 S6        30.20S WCI  18
SASKATOON      MOCLDY    19  18  93 SW2       30.22F
CYPRESS HILLS    N/A     36  21  55 N3          N/A
VAL MARIE        N/A     28  25  86 SW2         N/A
ROCKGLEN         N/A     32  27  80 NW10        N/A  WCI  24
ASSINIBOIA       N/A     34  32  93 S7          N/A  WCI  28
$$



USA.gov is the U.S. government's official web portal to all federal, state and local government web resources and services.